FENGYUN 1C DEB, 33619

Orbit data source: Space-Track

FENGYUN 1C DEB, 33619 is space debris in SSO originally from a launch on Mon, 10 May 1999 UTC launched from the Taiyaun Space Center, China (TSC). Fengyun 1C debris stems from the Chinese weather satellite Fengyun-1C, which was intentionally destroyed by a Chinese anti-satellite missile in 2007. This event dramatically increased the amount of space debris, with thousands of trackable fragments posing hazards to satellites and human spaceflight. The Fengyun 1C debris cloud has become a focal point in discussions about space sustainability and the need for international regulations to prevent the creation of new debris.

Loading next visibility...
Identifier
33619, 1999-025DDC
Orbit
SSO
Country
Flag of CNCN / PRC
Related business
Manufacturer
Unknown
Mission
Spacecraft
Bus & Motor
Unknown
Mass
Unknown
Launch date (UTC)
1999-05-10 (27 years ago)
Launch vehicle
Unknown
Launch site
Taiyaun Space Center, China (TSC)
Object type
Payload
Rocket body
Debris
Shape & HBR
Unknown shape, 0.1 m
Radar Cross Section
Small (<0.1 m²)

Expand to show TLE details & history
Last TLE update: 4 days ago

TLE from 4 days ago
0 FENGYUN 1C DEB
1 33619U 99025DDC 25344.47229187  .00003926  00000-0  19318-2 0  9999
2 33619  98.8615  53.8773 0051078  52.8594 307.7230 14.17489179635926
Epoch: 2025-12-10T11:20Z
TLE epoch observation values (Epoch: 2025-12-10T11:20:06.017Z)
Latitude
-0.00009°
Longitude
164.41011°
Altitude
814.338 km
Speed
7.458 km/s
True Right ascension
03h 35m 30s
True Declination
0° 00' 00"
Sunlit
Object was in full shadow at epoch
Visualization orbit readout
Latitude
Unknown
Longitude
Unknown
Altitude
Unknown
Speed
Unknown
Apparent Right ascension
Unknown
Apparent Declination
Unknown
Sunlit
N/A
Visualization observer readout
Local Sidereal Time
23:31:53
Azimuth
Unknown
Elevation
Unknown
Doppler factor
Unknown
Orbital elements
Apogee altitude
867.849 km
Perigee altitude
794.203 km
Semi-major axis
7,209.163 km
Eccentricity
0.00511
Inclination
98.8615°
RAAN
53.8773°
Arg. of periapsis
52.8594°
True anomaly
307.25822°
Mean anomaly
307.723°
Eccentric anomaly
307.49079°
Mean motion
3.54581 °/min
Orbital period
101.53 mins
BSTAR
0.0019318
Loading maneuver chart data...
Computing Atmospheric mass density...

Documentation

Showing up to 5 results
|